PBD432 USPP-UUWW

Flight info

Callsign PBD432
Flight time N/A
Altitude 34000
Route ULPET W63 INGEN M864 KERUN P164 IDMOR M864 EKSER M864 IBROT T535 URIDU L158 DIMGI
Aircraft B738/M-SDE2E3FGHIRWXY/LB1

Departure

Time 2026-04-17 17:50
Airport Perm International Airport (USPP)

Arrival

Time N/A
Airport Vnukovo International Airport (UUWW)
Time Latitude Longitude Altitude Speed Heading
2026-04-17 17:35 57.91878 56.02019 408 ft 0 kts 316°
2026-04-17 17:37 57.91877 56.02021 408 ft 1 kts 316°
2026-04-17 17:37 57.91866 56.02040 408 ft 2 kts 316°
2026-04-17 17:38 57.91855 56.02059 408 ft 2 kts 316°
2026-04-17 17:38 57.91843 56.02076 408 ft 2 kts 343°
2026-04-17 17:38 57.91828 56.02080 408 ft 2 kts
2026-04-17 17:38 57.91819 56.02076 408 ft 2 kts 24°
2026-04-17 17:39 57.91810 56.02065 408 ft 0 kts 43°
2026-04-17 17:39 57.91806 56.02056 408 ft 1 kts 46°
2026-04-17 17:39 57.91805 56.02055 408 ft 0 kts 46°
2026-04-17 17:44 57.91806 56.02056 408 ft 0 kts 46°
2026-04-17 17:44 57.91826 56.02094 408 ft 3 kts 44°
2026-04-17 17:44 57.91874 56.02186 408 ft 15 kts 46°
2026-04-17 17:45 57.91946 56.02325 408 ft 14 kts 46°
2026-04-17 17:45 57.92011 56.02452 408 ft 12 kts 45°
2026-04-17 17:45 57.92070 56.02564 408 ft 11 kts 46°
2026-04-17 17:45 57.92128 56.02678 408 ft 14 kts 46°
2026-04-17 17:46 57.92218 56.02852 408 ft 20 kts 45°
2026-04-17 17:46 57.92312 56.03034 409 ft 18 kts 46°
2026-04-17 17:46 57.92399 56.03203 409 ft 17 kts 46°
2026-04-17 17:46 57.92480 56.03360 409 ft 16 kts 45°
2026-04-17 17:47 57.92555 56.03505 409 ft 15 kts 46°
2026-04-17 17:47 57.92623 56.03638 409 ft 11 kts 46°
2026-04-17 17:47 57.92622 56.03738 409 ft 8 kts 131°
2026-04-17 17:47 57.92575 56.03825 409 ft 12 kts 136°
2026-04-17 17:48 57.92503 56.03954 409 ft 14 kts 136°
2026-04-17 17:48 57.92442 56.04037 409 ft 8 kts 187°
2026-04-17 17:48 57.92398 56.03976 409 ft 5 kts 226°
2026-04-17 17:48 57.92396 56.03973 409 ft 0 kts 226°
2026-04-17 17:49 57.92377 56.03936 409 ft 23 kts 226°
2026-04-17 17:49 57.92083 56.03366 409 ft 95 kts 226°
2026-04-17 17:50 57.91479 56.02193 409 ft 154 kts 226°
2026-04-17 17:50 57.90686 56.00647 924 ft 164 kts 229°
2026-04-17 17:50 57.89990 55.99184 1955 ft 148 kts 234°
2026-04-17 17:50 57.89308 55.97670 2387 ft 157 kts 232°
2026-04-17 17:51 57.88510 55.96220 2776 ft 169 kts 229°
2026-04-17 17:51 57.87665 55.94658 3231 ft 174 kts 233°
2026-04-17 17:51 57.86821 55.92883 3561 ft 189 kts 234°
2026-04-17 17:51 57.85940 55.91062 4144 ft 192 kts 234°
2026-04-17 17:52 57.85001 55.89173 4562 ft 206 kts 233°
2026-04-17 17:52 57.84087 55.86947 4940 ft 218 kts 241°
2026-04-17 17:52 57.83279 55.84629 5653 ft 217 kts 243°
2026-04-17 17:52 57.82422 55.82113 5842 ft 240 kts 242°
2026-04-17 17:53 57.81461 55.79502 6395 ft 246 kts 238°
2026-04-17 17:53 57.80426 55.76995 7145 ft 244 kts 238°
2026-04-17 17:53 57.79364 55.74507 7724 ft 247 kts 238°
2026-04-17 17:53 57.78360 55.71926 8293 ft 248 kts 240°
2026-04-17 17:54 57.77358 55.69325 9006 ft 246 kts 239°
2026-04-17 17:54 57.76305 55.66723 9341 ft 259 kts 238°
2026-04-17 17:54 57.75246 55.64065 10151 ft 251 kts 239°
2026-04-17 17:54 57.74214 55.61383 10461 ft 263 kts 239°
2026-04-17 17:55 57.73113 55.58596 10841 ft 272 kts 238°
2026-04-17 17:55 57.71976 55.55644 11100 ft 286 kts 239°
2026-04-17 17:55 57.70763 55.52665 11505 ft 294 kts 236°
2026-04-17 17:55 57.69494 55.49606 11815 ft 305 kts 238°
2026-04-17 17:56 57.68226 55.46322 12104 ft 316 kts 238°
2026-04-17 17:56 57.66925 55.42926 12384 ft 328 kts 238°
2026-04-17 17:56 57.65562 55.39417 12768 ft 336 kts 238°
2026-04-17 17:56 57.64188 55.35863 13040 ft 347 kts 237°
2026-04-17 17:57 57.62783 55.32350 13839 ft 343 kts 236°
2026-04-17 17:57 57.61386 55.28893 14444 ft 345 kts 235°
2026-04-17 17:57 57.59947 55.25322 14961 ft 349 kts 236°
2026-04-17 17:57 57.58499 55.21661 15531 ft 352 kts 236°
2026-04-17 17:58 57.57037 55.18005 16161 ft 353 kts 236°
2026-04-17 17:58 57.55562 55.14360 16718 ft 355 kts 236°
2026-04-17 17:58 57.54097 55.10743 17265 ft 358 kts 236°
2026-04-17 17:58 57.52611 55.07041 17798 ft 360 kts 236°
2026-04-17 17:59 57.51120 55.03336 18339 ft 362 kts 236°
2026-04-17 17:59 57.49624 54.99620 18826 ft 365 kts 236°
2026-04-17 17:59 57.48086 54.95797 19341 ft 368 kts 236°
2026-04-17 17:59 57.46561 54.92014 19814 ft 371 kts 236°
2026-04-17 18:00 57.45010 54.88201 20290 ft 375 kts 235°
2026-04-17 18:00 57.43436 54.84344 20794 ft 376 kts 235°
2026-04-17 18:00 57.41861 54.80539 21219 ft 380 kts 235°
2026-04-17 18:00 57.40226 54.76643 21635 ft 384 kts 234°
2026-04-17 18:01 57.38581 54.72754 22043 ft 387 kts 234°
2026-04-17 18:01 57.36954 54.68917 22470 ft 390 kts 234°
2026-04-17 18:01 57.35278 54.64974 22912 ft 392 kts 234°
2026-04-17 18:01 57.33617 54.61059 23330 ft 394 kts 234°
2026-04-17 18:02 57.31923 54.57072 23784 ft 396 kts 234°
2026-04-17 18:02 57.30209 54.53052 24117 ft 400 kts 234°
2026-04-17 18:02 57.28498 54.49033 24535 ft 402 kts 234°
2026-04-17 18:02 57.26758 54.44956 24979 ft 403 kts 234°
2026-04-17 18:03 57.25026 54.40903 25398 ft 405 kts 234°
2026-04-17 18:03 57.23277 54.36816 25825 ft 406 kts 234°
2026-04-17 18:03 57.21562 54.32834 26010 ft 412 kts 233°
2026-04-17 18:03 57.19779 54.28699 26436 ft 412 kts 233°
2026-04-17 18:04 57.17988 54.24560 26836 ft 414 kts 233°
2026-04-17 18:04 57.16213 54.20473 27163 ft 416 kts 233°
2026-04-17 18:04 57.14413 54.16344 27539 ft 417 kts 233°
2026-04-17 18:04 57.12599 54.12194 27830 ft 420 kts 233°
2026-04-17 18:05 57.10769 54.08007 28135 ft 422 kts 233°
2026-04-17 18:05 57.08927 54.03801 28474 ft 424 kts 233°
2026-04-17 18:05 57.07088 53.99602 28761 ft 426 kts 233°
2026-04-17 18:05 57.05250 53.95414 28952 ft 430 kts 233°
2026-04-17 18:06 57.03384 53.91134 29177 ft 433 kts 233°
2026-04-17 18:06 57.01523 53.86853 29452 ft 431 kts 233°
2026-04-17 18:06 56.99671 53.82601 29783 ft 427 kts 234°
2026-04-17 18:06 56.97824 53.78359 30080 ft 428 kts 233°
2026-04-17 18:07 56.95966 53.74096 30437 ft 428 kts 233°
2026-04-17 18:07 56.94151 53.69943 30903 ft 424 kts 234°
2026-04-17 18:07 56.92342 53.65810 31362 ft 421 kts 234°
2026-04-17 18:07 56.90532 53.61682 31614 ft 422 kts 234°
2026-04-17 18:08 56.88890 53.57948 31736 ft 425 kts 233°
2026-04-17 18:08 56.87178 53.53929 31875 ft 427 kts 236°
2026-04-17 18:08 56.83981 53.43787 32259 ft 428 kts 249°
2026-04-17 18:09 56.83023 53.38844 32453 ft 428 kts 255°
2026-04-17 18:09 56.82386 53.33796 32668 ft 420 kts 260°
2026-04-17 18:09 56.82077 53.28700 32915 ft 412 kts 266°
2026-04-17 18:09 56.82099 53.23480 33170 ft 414 kts 272°
2026-04-17 18:10 56.82335 53.18263 33425 ft 415 kts 274°
2026-04-17 18:10 56.82592 53.13199 33669 ft 416 kts 274°
2026-04-17 18:10 56.82816 53.08158 33906 ft 417 kts 273°
2026-04-17 18:11 56.83132 52.97669 33992 ft 416 kts 271°
2026-04-17 18:11 56.83248 52.87223 33992 ft 415 kts 270°
2026-04-17 18:12 56.83238 52.76718 33988 ft 416 kts 269°
2026-04-17 18:12 56.83179 52.66196 33994 ft 416 kts 269°
2026-04-17 18:13 56.83097 52.55697 33996 ft 416 kts 269°
2026-04-17 18:13 56.83002 52.45332 33993 ft 416 kts 269°
2026-04-17 18:14 56.82897 52.34818 33989 ft 417 kts 268°
2026-04-17 18:14 56.82789 52.24352 33997 ft 416 kts 268°
2026-04-17 18:15 56.82704 52.13799 33988 ft 416 kts 269°
2026-04-17 18:15 56.82837 52.03505 33989 ft 418 kts 271°
2026-04-17 18:16 56.83035 51.92919 33992 ft 419 kts 271°
2026-04-17 18:16 56.83213 51.82387 33996 ft 418 kts 271°
2026-04-17 18:17 56.83363 51.71732 33990 ft 419 kts 271°
2026-04-17 18:17 56.83553 51.55831 33992 ft 419 kts 270°
2026-04-17 18:18 56.83463 51.45217 34001 ft 418 kts 266°
2026-04-17 18:18 56.83025 51.34728 33998 ft 418 kts 264°
2026-04-17 18:19 56.82539 51.24138 33990 ft 418 kts 264°
2026-04-17 18:19 56.82081 51.13580 33994 ft 418 kts 265°
2026-04-17 18:20 56.81638 51.03011 33995 ft 418 kts 265°
2026-04-17 18:20 56.81199 50.92457 34001 ft 419 kts 265°
2026-04-17 18:21 56.80756 50.81916 33998 ft 419 kts 265°
2026-04-17 18:21 56.80306 50.71368 33995 ft 418 kts 265°
2026-04-17 18:22 56.79852 50.60921 33991 ft 404 kts 265°
2026-04-17 18:22 56.79410 50.50934 33995 ft 384 kts 265°
2026-04-17 18:23 56.79196 50.46168 33995 ft 368 kts 265°
2026-04-17 18:23 56.78985 50.41505 34001 ft 372 kts 265°
2026-04-17 18:23 56.78559 50.32288 33994 ft 382 kts 264°
2026-04-17 18:24 56.78102 50.22534 33992 ft 391 kts 264°
2026-04-17 18:24 56.77876 50.17721 33980 ft 372 kts 264°
2026-04-17 18:24 56.77658 50.13108 33989 ft 370 kts 264°
2026-04-17 18:25 56.77199 50.03606 33993 ft 380 kts 264°
2026-04-17 18:25 56.76721 49.93897 33994 ft 390 kts 264°
2026-04-17 18:26 56.76225 49.83916 33987 ft 400 kts 264°
2026-04-17 18:26 56.75821 49.73720 33988 ft 410 kts 266°
2026-04-17 18:27 56.75574 49.63214 33987 ft 419 kts 266°
2026-04-17 18:27 56.75330 49.52608 33988 ft 417 kts 266°
2026-04-17 18:28 56.75060 49.42090 33989 ft 419 kts 266°
2026-04-17 18:28 56.74768 49.31539 33986 ft 418 kts 265°
2026-04-17 18:29 56.74452 49.20948 33985 ft 418 kts 265°
2026-04-17 18:29 56.74134 49.10451 33982 ft 417 kts 265°
2026-04-17 18:30 56.73808 48.99894 33988 ft 417 kts 265°
2026-04-17 18:30 56.73472 48.89356 33988 ft 417 kts 265°
2026-04-17 18:31 56.73129 48.78859 33986 ft 417 kts 265°
2026-04-17 18:31 56.72773 48.68286 33987 ft 417 kts 265°
2026-04-17 18:32 56.72408 48.57748 33991 ft 417 kts 265°
2026-04-17 18:32 56.72032 48.47244 33985 ft 417 kts 265°
2026-04-17 18:33 56.71651 48.36701 33989 ft 418 kts 265°
2026-04-17 18:33 56.71262 48.26094 33990 ft 419 kts 264°
2026-04-17 18:34 56.70867 48.15530 33993 ft 418 kts 264°
2026-04-17 18:34 56.70462 48.04971 33988 ft 417 kts 264°
2026-04-17 18:35 56.70047 47.94463 33991 ft 417 kts 264°
2026-04-17 18:35 56.69625 47.83938 33990 ft 417 kts 264°
2026-04-17 18:36 56.69195 47.73461 33986 ft 416 kts 264°
2026-04-17 18:36 56.68750 47.62929 33987 ft 418 kts 264°
2026-04-17 18:37 56.68300 47.52421 33987 ft 417 kts 264°
2026-04-17 18:37 56.67832 47.41851 33979 ft 417 kts 264°
2026-04-17 18:38 56.67179 47.31385 33980 ft 417 kts 258°
2026-04-17 18:38 56.65699 47.21273 33984 ft 415 kts 251°
2026-04-17 18:39 56.63783 47.11401 33988 ft 416 kts 249°
2026-04-17 18:39 56.61770 47.01520 33985 ft 415 kts 249°
2026-04-17 18:40 56.59769 46.91742 33985 ft 415 kts 249°
2026-04-17 18:40 56.57763 46.81929 33983 ft 416 kts 249°
2026-04-17 18:41 56.55742 46.72055 33988 ft 417 kts 249°
2026-04-17 18:41 56.53724 46.62239 33980 ft 416 kts 249°
2026-04-17 18:42 56.51693 46.52393 33978 ft 417 kts 249°
2026-04-17 18:42 56.49661 46.42571 33976 ft 416 kts 249°
2026-04-17 18:43 56.47633 46.32807 33974 ft 416 kts 248°
2026-04-17 18:43 56.45594 46.23054 33975 ft 416 kts 249°
2026-04-17 18:44 56.43534 46.13257 33973 ft 417 kts 249°
2026-04-17 18:44 56.41456 46.03423 33971 ft 416 kts 248°
2026-04-17 18:45 56.39393 45.93704 33967 ft 418 kts 249°
2026-04-17 18:45 56.37313 45.83936 33966 ft 417 kts 249°
2026-04-17 18:46 56.35219 45.74161 33969 ft 417 kts 249°
2026-04-17 18:46 56.33117 45.64424 33971 ft 417 kts 249°
2026-04-17 18:47 56.31016 45.54710 33973 ft 419 kts 249°
2026-04-17 18:47 56.28896 45.44939 33974 ft 417 kts 249°
2026-04-17 18:48 56.26787 45.35262 33972 ft 419 kts 249°
2026-04-17 18:48 56.24653 45.25518 33971 ft 418 kts 248°
2026-04-17 18:49 56.22509 45.15759 33969 ft 419 kts 248°
2026-04-17 18:49 56.20363 45.06050 33972 ft 419 kts 248°
2026-04-17 18:50 56.18203 44.96343 33970 ft 418 kts 248°
2026-04-17 18:50 56.16040 44.86649 33973 ft 419 kts 248°
2026-04-17 18:51 56.13863 44.76933 33970 ft 419 kts 248°
2026-04-17 18:51 56.11839 44.67160 33968 ft 420 kts 253°
2026-04-17 18:52 56.10679 44.56928 33965 ft 419 kts 262°
2026-04-17 18:52 56.10032 44.46535 33973 ft 420 kts 264°
2026-04-17 18:53 56.09463 44.36145 33966 ft 420 kts 264°
2026-04-17 18:53 56.08867 44.25654 33965 ft 420 kts 263°
2026-04-17 18:54 56.08248 44.15294 33973 ft 420 kts 263°
2026-04-17 18:54 56.07601 44.04867 33968 ft 420 kts 263°
2026-04-17 18:55 56.06944 43.94532 33972 ft 421 kts 263°
2026-04-17 18:55 56.06271 43.84130 33966 ft 420 kts 263°
2026-04-17 18:56 56.05587 43.73722 33968 ft 420 kts 263°
2026-04-17 18:56 56.04894 43.63329 33968 ft 421 kts 263°
2026-04-17 18:57 56.04196 43.52980 33968 ft 421 kts 262°
2026-04-17 18:57 56.03488 43.42562 33958 ft 421 kts 262°
2026-04-17 18:58 56.02932 43.32169 33950 ft 421 kts 266°
2026-04-17 18:58 56.02957 43.21714 33944 ft 422 kts 270°
2026-04-17 18:59 56.03171 43.11226 33945 ft 422 kts 270°
2026-04-17 18:59 56.03386 43.00713 33942 ft 422 kts 270°
2026-04-17 19:00 56.03566 42.90293 33942 ft 422 kts 270°
2026-04-17 19:00 56.03724 42.79810 33945 ft 422 kts 270°
2026-04-17 19:01 56.03863 42.69347 33934 ft 423 kts 270°
2026-04-17 19:01 56.03883 42.58796 33943 ft 423 kts 265°
2026-04-17 19:02 56.02828 42.48477 33943 ft 423 kts 253°
2026-04-17 19:02 56.00827 42.38633 33945 ft 423 kts 248°
2026-04-17 19:03 55.98589 42.28958 33941 ft 422 kts 247°
2026-04-17 19:03 55.96314 42.19264 33939 ft 422 kts 247°
2026-04-17 19:04 55.94066 42.09638 33943 ft 422 kts 247°
2026-04-17 19:04 55.91801 41.99910 33943 ft 423 kts 247°
2026-04-17 19:05 55.89546 41.90223 33944 ft 424 kts 248°
2026-04-17 19:05 55.87453 41.80372 33943 ft 425 kts 253°
2026-04-17 19:06 55.86422 41.70034 33940 ft 427 kts 264°
2026-04-17 19:06 55.86048 41.59512 33948 ft 427 kts 266°
2026-04-17 19:07 55.85805 41.48936 33945 ft 428 kts 266°
2026-04-17 19:07 55.85538 41.38415 33950 ft 429 kts 266°
2026-04-17 19:08 55.85229 41.27774 33952 ft 429 kts 265°
2026-04-17 19:08 55.84893 41.17180 33955 ft 428 kts 265°
2026-04-17 19:09 55.84539 41.06672 33955 ft 428 kts 265°
2026-04-17 19:09 55.84172 40.96099 33954 ft 430 kts 265°
2026-04-17 19:10 55.83793 40.85460 33956 ft 430 kts 265°
2026-04-17 19:10 55.83406 40.74902 33956 ft 430 kts 265°
2026-04-17 19:11 55.83007 40.64269 33954 ft 430 kts 265°
2026-04-17 19:11 55.82595 40.53671 33955 ft 431 kts 265°
2026-04-17 19:12 55.82280 40.45870 33953 ft 431 kts 265°
2026-04-17 19:12 55.81844 40.35314 33847 ft 433 kts 265°
2026-04-17 19:13 55.81622 40.30005 33642 ft 432 kts 264°
2026-04-17 19:13 55.81407 40.24916 33438 ft 430 kts 264°
2026-04-17 19:13 55.81183 40.19672 33240 ft 430 kts 264°
2026-04-17 19:13 55.80959 40.14485 33007 ft 430 kts 264°
2026-04-17 19:14 55.80734 40.09313 32753 ft 430 kts 264°
2026-04-17 19:14 55.80504 40.04082 32202 ft 429 kts 264°
2026-04-17 19:14 55.80274 39.98914 31386 ft 432 kts 263°
2026-04-17 19:14 55.80036 39.93623 30473 ft 435 kts 263°
2026-04-17 19:15 55.79798 39.88361 29563 ft 437 kts 264°
2026-04-17 19:15 55.79559 39.83106 28652 ft 438 kts 264°
2026-04-17 19:15 55.79306 39.77900 28080 ft 426 kts 262°
2026-04-17 19:15 55.79007 39.72813 27957 ft 404 kts 262°
2026-04-17 19:16 55.78691 39.67975 27952 ft 382 kts 261°
2026-04-17 19:16 55.78369 39.63408 27964 ft 379 kts 261°
2026-04-17 19:16 55.78037 39.58804 27959 ft 382 kts 261°
2026-04-17 19:16 55.77705 39.54149 27959 ft 382 kts 261°
2026-04-17 19:17 55.77376 39.49480 27959 ft 381 kts 261°
2026-04-17 19:17 55.77049 39.44833 27959 ft 382 kts 261°
2026-04-17 19:17 55.76721 39.40145 27958 ft 382 kts 261°
2026-04-17 19:17 55.76398 39.35524 27962 ft 382 kts 261°
2026-04-17 19:18 55.76078 39.30942 27955 ft 382 kts 261°
2026-04-17 19:18 55.75765 39.26440 27959 ft 382 kts 260°
2026-04-17 19:18 55.75537 39.23223 27957 ft 382 kts 260°
2026-04-17 19:18 55.75258 39.19308 27961 ft 381 kts 261°
2026-04-17 19:19 55.74923 39.14637 27961 ft 382 kts 261°
2026-04-17 19:19 55.74599 39.10115 27960 ft 381 kts 261°
2026-04-17 19:19 55.74283 39.05716 27964 ft 382 kts 260°
2026-04-17 19:19 55.73944 39.01040 27961 ft 383 kts 260°
2026-04-17 19:20 55.73604 38.96380 27960 ft 383 kts 260°
2026-04-17 19:20 55.73263 38.91717 27958 ft 383 kts 260°
2026-04-17 19:20 55.72922 38.87175 27597 ft 385 kts 260°
2026-04-17 19:20 55.72567 38.82574 27034 ft 383 kts 260°
2026-04-17 19:21 55.72214 38.78035 26490 ft 380 kts 260°
2026-04-17 19:21 55.71857 38.73495 25954 ft 377 kts 260°
2026-04-17 19:21 55.71510 38.69094 25448 ft 373 kts 260°
2026-04-17 19:21 55.71166 38.64649 24930 ft 370 kts 260°
2026-04-17 19:22 55.70832 38.60242 24415 ft 367 kts 260°
2026-04-17 19:22 55.70496 38.55778 23887 ft 363 kts 260°
2026-04-17 19:22 55.70174 38.51535 23390 ft 360 kts 260°
2026-04-17 19:22 55.69846 38.47239 22886 ft 357 kts 260°
2026-04-17 19:23 55.69520 38.42986 22384 ft 354 kts 260°
2026-04-17 19:23 55.68891 38.34804 21422 ft 348 kts 259°
2026-04-17 19:23 55.68645 38.31617 21048 ft 346 kts 259°